Location: Eastlake (historical)
(39.0077°N, 122.6678°W)
Time: 12:08:09
(UTC+00:00)

NOSS 3-2 (C) - Pass Details

Date: 25 November 2020
Orbit: 789 x 1424 km, 63.4° (Epoch: 09 January)

Event Time Altitude Azimuth Distance (km) Brightness Sun altitude
Exits shadow 14:00:47 10° 316° (NW) 3,182 5.7 -12.4°
Maximum altitude 14:08:16 51° 244° (WSW) 1,642 4.4 -11.0°
Drops below altitude 10° 14:16:33 10° 172° (S) 3,496 6.8 -9.5°
Sets 14:19:37 0° 167° (SSE) 4,485 7.4 -9.0°
